E.r. Borneo — A8SZ4 — position and weather

sailwx.info

Track history (hours):
 
Tides and Currents Weather Stations Pressure Air Temp Water Temp Dewpoint Dewpoint Depression Visibility Wind Speed Wind Dir Waves Ship Positions

E.r. Borneo

Last reported at 2014-Jul-29 10:12 UTC. Time now 2014-Jul-30 21:17 UTC.
Position N 41°22' E 029°15'.

Length 292 m; draft 17.9 m.

Type: Cargo ship. MMSI: 636091797.

Date/timePositionNaut miles runAvg speedWind from/ knotsBaromVisibWave heightAir tempDewpointWater temp
2014-Jul-29 10:12N 41°22' E 029°15'120 8.0
2014-Jul-28 19:19N 40°28' E 026°53'7 9.2
2014-Jul-28 18:33N 40°25' E 026°45'21 8.7
2014-Jul-28 16:07N 40°12' E 026°23'22 8.3
2014-Jul-28 13:32N 39°59' E 026°01'1010.3
2014-Jul-28 12:33N 39°51' E 025°52'1211.3
2014-Jul-28 11:26N 39°40' E 025°45'1111.3
2014-Jul-28 10:27N 39°30' E 025°39'1511.2
2014-Jul-28 09:04N 39°16' E 025°30'611.2
2014-Jul-28 08:33N 39°11' E 025°26'6211.6
2014-Jul-28 03:10N 38°15' E 024°51'2111.9
2014-Jul-28 01:25N 37°57' E 024°38'1111.8
2014-Jul-28 00:27N 37°50' E 024°26'2111.2
2014-Jul-27 22:33N 37°34' E 024°09'1411.3
2014-Jul-27 21:18N 37°22' E 023°60'911.5
2014-Jul-27 20:33N 37°14' E 023°54'1111.4
2014-Jul-27 19:33N 37°05' E 023°46'1111.5
2014-Jul-27 18:33N 36°55' E 023°38'1211.5
2014-Jul-27 17:33N 36°46' E 023°30'1111.3
2014-Jul-27 16:33N 36°36' E 023°23'1111.1
2014-Jul-27 15:33N 36°27' E 023°15'10 9.6
2014-Jul-27 14:28N 36°24' E 023°03'37211.6
2014-Jul-26 06:32N 36°25' E 015°21'1212.0
2014-Jul-26 05:33N 36°25' E 015°06'1211.6
2014-Jul-26 04:33N 36°27' E 014°52'1211.9
2014-Jul-26 03:33N 36°30' E 014°37'1211.8
2014-Jul-26 02:33N 36°32' E 014°23'1211.7
2014-Jul-26 01:33N 36°34' E 014°09'1211.6
2014-Jul-26 00:33N 36°37' E 013°55'1211.6
2014-Jul-25 23:33N 36°39' E 013°40'1111.4
2014-Jul-25 22:33N 36°41' E 013°27'1111.5
2014-Jul-25 21:33N 36°43' E 013°13'1211.9
2014-Jul-25 20:33N 36°45' E 012°58'1212.4
2014-Jul-25 19:33N 36°48' E 012°43'1212.0
2014-Jul-25 18:33N 36°50' E 012°28'1211.6
2014-Jul-25 17:33N 36°53' E 012°14'1110.9
2014-Jul-25 16:33N 36°57' E 012°01'1111.2
2014-Jul-25 15:33N 37°03' E 011°49'1511.3
2014-Jul-25 14:15N 37°10' E 011°34'811.2
2014-Jul-25 13:33N 37°14' E 011°25'1210.8
2014-Jul-25 12:24N 37°21' E 011°12'910.6
2014-Jul-25 11:33N 37°25' E 011°02'1211.1
2014-Jul-25 10:28N 37°28' E 010°47'1011.4
2014-Jul-25 09:33N 37°31' E 010°34'1211.4
2014-Jul-25 08:33N 37°33' E 010°20'1211.6
2014-Jul-25 07:33N 37°34' E 010°06'1212.2
2014-Jul-25 06:33N 37°32' E 009°50'1212.1
2014-Jul-25 05:33N 37°29' E 009°36'1211.7
2014-Jul-25 04:32N 37°26' E 009°21'1111.4
2014-Jul-25 03:33N 37°23' E 009°07'1211.3
2014-Jul-25 02:27N 37°20' E 008°52'1011.0
2014-Jul-25 01:30N 37°18' E 008°40'1211.3
2014-Jul-25 00:28N 37°17' E 008°25'1011.4
2014-Jul-24 23:32N 37°16' E 008°12'1111.6
2014-Jul-24 22:33N 37°16' E 007°57'1212.0
2014-Jul-24 21:33N 37°16' E 007°42'3611.8
2014-Jul-24 18:28N 37°15' E 006°57'2211.0
2014-Jul-24 16:31N 37°14' E 006°30'1111.4
2014-Jul-24 15:31N 37°14' E 006°15'1110.9
2014-Jul-24 14:32N 37°14' E 006°02'1111.3
2014-Jul-24 13:33N 37°13' E 005°48'1211.5
2014-Jul-24 12:33N 37°13' E 005°33'1211.6
2014-Jul-24 11:33N 37°12' E 005°19'1511.5
2014-Jul-24 10:16N 37°12' E 005°00'811.4
2014-Jul-24 09:33N 37°12' E 004°50'1111.4
2014-Jul-24 08:33N 37°11' E 004°36'1211.6
2014-Jul-24 07:33N 37°11' E 004°21'1211.8
2014-Jul-24 06:33N 37°11' E 004°07'1311.9
2014-Jul-24 05:25N 37°10' E 003°50'2311.9
2014-Jul-24 03:30N 37°10' E 003°21'1212.0
2014-Jul-24 02:27N 37°09' E 003°05'1111.8
2014-Jul-24 01:33N 37°08' E 002°52'1211.7
2014-Jul-24 00:33N 37°06' E 002°38'1311.7
2014-Jul-23 23:28N 37°03' E 002°22'1111.4
2014-Jul-23 22:31N 37°01' E 002°09'1111.1
2014-Jul-23 21:34N 36°59' E 001°55'1111.2
2014-Jul-23 20:33N 36°57' E 001°42'1211.7
2014-Jul-23 19:33N 36°55' E 001°27'1211.8
2014-Jul-23 18:32N 36°52' E 001°13'1211.8
2014-Jul-23 17:33N 36°51' E 000°58'1211.8
2014-Jul-23 16:33N 36°48' E 000°44'1211.9
2014-Jul-23 15:33N 36°46' E 000°29'1211.8
2014-Jul-23 14:33N 36°44' E 000°15'1211.5
2014-Jul-23 13:33N 36°42' E 000°01'1111.4
2014-Jul-23 12:33N 36°39' W 000°13'1111.5
2014-Jul-23 11:33N 36°37' W 000°27'1511.9
2014-Jul-23 10:20N 36°35' W 000°45'911.5
2014-Jul-23 09:33N 36°33' W 000°56'1211.6
2014-Jul-23 08:31N 36°31' W 001°11'1212.1
2014-Jul-23 07:33N 36°28' W 001°25'1211.8
2014-Jul-23 06:33N 36°26' W 001°39'1111.2
2014-Jul-23 05:33N 36°24' W 001°53'1611.7
2014-Jul-23 04:11N 36°22' W 002°13'711.4
2014-Jul-23 03:33N 36°21' W 002°22'14512.0
2014-Jul-22 15:27N 35°59' W 005°19'20211.2
2014-Jul-21 21:32N 33°58' W 008°35'1010.6
2014-Jul-21 20:33N 33°51' W 008°44'310.7
2014-Jul-21 20:17N 33°49' W 008°47'810.8
2014-Jul-21 19:31N 33°44' W 008°54'1010.8
2014-Jul-21 18:33N 33°36' W 009°04'1110.9
2014-Jul-21 17:33N 33°29' W 009°14'  
Track history (hours):
 
Tides and Currents Weather Stations Pressure Air Temp Water Temp Dewpoint Dewpoint Depression Visibility Wind Speed Wind Dir Waves Ship Positions

E.r. Borneo

Last reported at 2014-Jul-29 10:12 UTC. Time now 2014-Jul-30 21:17 UTC.
Position N 41°22' E 029°15'.

Length 292 m; draft 17.9 m.

Type: Cargo ship. MMSI: 636091797.

Date/timePositionNaut miles runAvg speedWind from/ knotsBaromVisibWave heightAir tempDewpointWater temp
2014-Jul-29 10:12N 41°22' E 029°15'120 8.0
2014-Jul-28 19:19N 40°28' E 026°53'7 9.2
2014-Jul-28 18:33N 40°25' E 026°45'21 8.7
2014-Jul-28 16:07N 40°12' E 026°23'22 8.3
2014-Jul-28 13:32N 39°59' E 026°01'1010.3
2014-Jul-28 12:33N 39°51' E 025°52'1211.3
2014-Jul-28 11:26N 39°40' E 025°45'1111.3
2014-Jul-28 10:27N 39°30' E 025°39'1511.2
2014-Jul-28 09:04N 39°16' E 025°30'611.2
2014-Jul-28 08:33N 39°11' E 025°26'6211.6
2014-Jul-28 03:10N 38°15' E 024°51'2111.9
2014-Jul-28 01:25N 37°57' E 024°38'1111.8
2014-Jul-28 00:27N 37°50' E 024°26'2111.2
2014-Jul-27 22:33N 37°34' E 024°09'1411.3
2014-Jul-27 21:18N 37°22' E 023°60'911.5
2014-Jul-27 20:33N 37°14' E 023°54'1111.4
2014-Jul-27 19:33N 37°05' E 023°46'1111.5
2014-Jul-27 18:33N 36°55' E 023°38'1211.5
2014-Jul-27 17:33N 36°46' E 023°30'1111.3
2014-Jul-27 16:33N 36°36' E 023°23'1111.1
2014-Jul-27 15:33N 36°27' E 023°15'10 9.6
2014-Jul-27 14:28N 36°24' E 023°03'37211.6
2014-Jul-26 06:32N 36°25' E 015°21'1212.0
2014-Jul-26 05:33N 36°25' E 015°06'1211.6
2014-Jul-26 04:33N 36°27' E 014°52'1211.9
2014-Jul-26 03:33N 36°30' E 014°37'1211.8
2014-Jul-26 02:33N 36°32' E 014°23'1211.7
2014-Jul-26 01:33N 36°34' E 014°09'1211.6
2014-Jul-26 00:33N 36°37' E 013°55'1211.6
2014-Jul-25 23:33N 36°39' E 013°40'1111.4
2014-Jul-25 22:33N 36°41' E 013°27'1111.5
2014-Jul-25 21:33N 36°43' E 013°13'1211.9
2014-Jul-25 20:33N 36°45' E 012°58'1212.4
2014-Jul-25 19:33N 36°48' E 012°43'1212.0
2014-Jul-25 18:33N 36°50' E 012°28'1211.6
2014-Jul-25 17:33N 36°53' E 012°14'1110.9
2014-Jul-25 16:33N 36°57' E 012°01'1111.2
2014-Jul-25 15:33N 37°03' E 011°49'1511.3
2014-Jul-25 14:15N 37°10' E 011°34'811.2
2014-Jul-25 13:33N 37°14' E 011°25'1210.8
2014-Jul-25 12:24N 37°21' E 011°12'910.6
2014-Jul-25 11:33N 37°25' E 011°02'1211.1
2014-Jul-25 10:28N 37°28' E 010°47'1011.4
2014-Jul-25 09:33N 37°31' E 010°34'1211.4
2014-Jul-25 08:33N 37°33' E 010°20'1211.6
2014-Jul-25 07:33N 37°34' E 010°06'1212.2
2014-Jul-25 06:33N 37°32' E 009°50'1212.1
2014-Jul-25 05:33N 37°29' E 009°36'1211.7
2014-Jul-25 04:32N 37°26' E 009°21'1111.4
2014-Jul-25 03:33N 37°23' E 009°07'1211.3
2014-Jul-25 02:27N 37°20' E 008°52'1011.0
2014-Jul-25 01:30N 37°18' E 008°40'1211.3
2014-Jul-25 00:28N 37°17' E 008°25'1011.4
2014-Jul-24 23:32N 37°16' E 008°12'1111.6
2014-Jul-24 22:33N 37°16' E 007°57'1212.0
2014-Jul-24 21:33N 37°16' E 007°42'3611.8
2014-Jul-24 18:28N 37°15' E 006°57'2211.0
2014-Jul-24 16:31N 37°14' E 006°30'1111.4
2014-Jul-24 15:31N 37°14' E 006°15'1110.9
2014-Jul-24 14:32N 37°14' E 006°02'1111.3
2014-Jul-24 13:33N 37°13' E 005°48'1211.5
2014-Jul-24 12:33N 37°13' E 005°33'1211.6
2014-Jul-24 11:33N 37°12' E 005°19'1511.5
2014-Jul-24 10:16N 37°12' E 005°00'811.4
2014-Jul-24 09:33N 37°12' E 004°50'1111.4
2014-Jul-24 08:33N 37°11' E 004°36'1211.6
2014-Jul-24 07:33N 37°11' E 004°21'1211.8
2014-Jul-24 06:33N 37°11' E 004°07'1311.9
2014-Jul-24 05:25N 37°10' E 003°50'2311.9
2014-Jul-24 03:30N 37°10' E 003°21'1212.0
2014-Jul-24 02:27N 37°09' E 003°05'1111.8
2014-Jul-24 01:33N 37°08' E 002°52'1211.7
2014-Jul-24 00:33N 37°06' E 002°38'1311.7
2014-Jul-23 23:28N 37°03' E 002°22'1111.4
2014-Jul-23 22:31N 37°01' E 002°09'1111.1
2014-Jul-23 21:34N 36°59' E 001°55'1111.2
2014-Jul-23 20:33N 36°57' E 001°42'1211.7
2014-Jul-23 19:33N 36°55' E 001°27'1211.8
2014-Jul-23 18:32N 36°52' E 001°13'1211.8
2014-Jul-23 17:33N 36°51' E 000°58'1211.8
2014-Jul-23 16:33N 36°48' E 000°44'1211.9
2014-Jul-23 15:33N 36°46' E 000°29'1211.8
2014-Jul-23 14:33N 36°44' E 000°15'1211.5
2014-Jul-23 13:33N 36°42' E 000°01'1111.4
2014-Jul-23 12:33N 36°39' W 000°13'1111.5
2014-Jul-23 11:33N 36°37' W 000°27'1511.9
2014-Jul-23 10:20N 36°35' W 000°45'911.5
2014-Jul-23 09:33N 36°33' W 000°56'1211.6
2014-Jul-23 08:31N 36°31' W 001°11'1212.1
2014-Jul-23 07:33N 36°28' W 001°25'1211.8
2014-Jul-23 06:33N 36°26' W 001°39'1111.2
2014-Jul-23 05:33N 36°24' W 001°53'1611.7
2014-Jul-23 04:11N 36°22' W 002°13'711.4
2014-Jul-23 03:33N 36°21' W 002°22'14512.0
2014-Jul-22 15:27N 35°59' W 005°19'20211.2
2014-Jul-21 21:32N 33°58' W 008°35'1010.6
2014-Jul-21 20:33N 33°51' W 008°44'310.7
2014-Jul-21 20:17N 33°49' W 008°47'810.8
2014-Jul-21 19:31N 33°44' W 008°54'1010.8
2014-Jul-21 18:33N 33°36' W 009°04'1110.9
2014-Jul-21 17:33N 33°29' W 009°14'  

Dump ship's entire track history